Location: La B�doule
(43.2468°N, 5.5934°E)
Time: 13:06:45
(UTC+00:00)

Cosmos 1869 - Pass Details

Date: 07 June 2020
Orbit: 519 x 563 km, 82.5° (Epoch: 11 July)

Event Time Altitude Azimuth Distance (km) Brightness Sun altitude
Rises 01:25:28 0° 354° (N) 2,659 7.8 -19.4°
Reaches altitude 10° 01:27:38 10° 358° (N) 1,764 6.8 -19.2°
Maximum altitude 01:31:28 64° 80° (E) 582 3.5 -18.9°
Enters shadow 01:33:06 32° 151° (SSE) 916 4.1 -18.7°
